Time,TemperatureF,DewpointF,PressureIn,WindDirection,WindDirectionDegrees,WindSpeedMPH,WindSpeedGustMPH,Humidity,HourlyPrecipIn,Conditions,Clouds,dailyrainin,SoftwareType,DateUTC
2013-03-02 00:02:00,30.0,27.0,30.11,NNW,336,3.0,9.0,87,0.00,,,0.11,,2013-03-02 00:02:00,
2013-03-02 00:11:00,30.0,27.0,30.11,NNW,336,3.0,9.0,87,0.00,,,0.11,,2013-03-02 00:11:00,
2013-03-02 00:22:00,30.0,27.0,30.12,NNW,342,6.0,11.0,87,0.00,,,0.11,,2013-03-02 00:22:00,
2013-03-02 00:32:00,30.0,27.0,30.13,NW,325,2.0,9.0,88,0.00,,,0.11,,2013-03-02 00:32:00,
2013-03-02 00:42:00,30.0,27.0,30.13,NW,325,2.0,9.0,88,0.00,,,0.11,,2013-03-02 00:42:00,
2013-03-02 00:52:00,30.0,27.0,30.13,NNW,338,4.0,9.0,89,0.00,,,0.11,,2013-03-02 00:52:00,
2013-03-02 01:01:00,30.0,27.0,30.13,NNW,337,5.0,9.0,89,0.00,,,0.11,,2013-03-02 01:01:00,
2013-03-02 01:11:00,30.0,27.0,30.13,NNW,337,5.0,9.0,89,0.00,,,0.11,,2013-03-02 01:11:00,
2013-03-02 01:21:00,30.0,27.0,30.14,NNW,343,5.0,11.0,89,0.00,,,0.11,,2013-03-02 01:21:00,
2013-03-02 01:31:00,30.0,27.0,30.14,NNW,333,4.0,10.0,89,0.00,,,0.11,,2013-03-02 01:31:00,
2013-03-02 01:41:00,30.0,27.0,30.14,NNW,333,4.0,10.0,89,0.00,,,0.11,,2013-03-02 01:41:00,
2013-03-02 01:51:00,30.0,27.0,30.14,NNW,340,7.0,16.0,88,0.00,,,0.11,,2013-03-02 01:51:00,
2013-03-02 02:01:00,29.0,25.0,30.14,NNW,348,7.0,14.0,86,0.00,,,0.11,,2013-03-02 02:01:00,
2013-03-02 02:11:00,29.0,25.0,30.14,NNW,348,7.0,14.0,86,0.00,,,0.11,,2013-03-02 02:11:00,
2013-03-02 02:22:00,29.0,25.0,30.14,North,355,6.0,12.0,86,0.00,,,0.11,,2013-03-02 02:22:00,
2013-03-02 02:32:00,29.0,25.0,30.14,NNW,346,6.0,13.0,86,0.00,,,0.11,,2013-03-02 02:32:00,
2013-03-02 02:42:00,29.0,25.0,30.14,NNW,346,6.0,13.0,86,0.00,,,0.11,,2013-03-02 02:42:00,
2013-03-02 02:52:00,29.0,25.0,30.14,NNW,344,3.0,15.0,86,0.00,,,0.11,,2013-03-02 02:52:00,
2013-03-02 03:01:00,29.0,26.0,30.15,NW,306,7.0,13.0,87,0.00,,,0.11,,2013-03-02 03:01:00,
2013-03-02 03:11:00,29.0,26.0,30.15,NW,306,7.0,13.0,87,0.00,,,0.11,,2013-03-02 03:11:00,
2013-03-02 03:21:00,29.0,26.0,30.15,North,10,5.0,11.0,87,0.00,,,0.11,,2013-03-02 03:21:00,
2013-03-02 03:32:00,29.0,26.0,30.15,NNW,336,4.0,10.0,87,0.00,,,0.11,,2013-03-02 03:32:00,
2013-03-02 03:42:00,29.0,26.0,30.15,NNW,336,4.0,10.0,87,0.00,,,0.11,,2013-03-02 03:42:00,
2013-03-02 03:52:00,29.0,26.0,30.15,NW,313,6.0,11.0,87,0.00,,,0.11,,2013-03-02 03:52:00,
2013-03-02 04:01:00,29.0,26.0,30.16,North,351,6.0,11.0,87,0.00,,,0.11,,2013-03-02 04:01:00,
2013-03-02 04:11:00,29.0,26.0,30.16,North,351,6.0,11.0,87,0.00,,,0.11,,2013-03-02 04:11:00,
2013-03-02 04:21:00,29.0,25.0,30.16,NNW,348,7.0,12.0,86,0.00,,,0.11,,2013-03-02 04:21:00,
2013-03-02 04:32:00,29.0,25.0,30.16,North,350,3.0,8.0,85,0.00,,,0.11,,2013-03-02 04:32:00,
2013-03-02 04:42:00,29.0,25.0,30.16,North,350,3.0,8.0,85,0.00,,,0.11,,2013-03-02 04:42:00,
2013-03-02 04:52:00,28.0,24.0,30.16,NNW,348,6.0,11.0,85,0.00,,,0.11,,2013-03-02 04:52:00,
2013-03-02 05:02:00,28.0,24.0,30.16,NW,309,6.0,10.0,85,0.00,,,0.11,,2013-03-02 05:02:00,
2013-03-02 05:12:00,28.0,24.0,30.16,NW,309,6.0,10.0,85,0.00,,,0.11,,2013-03-02 05:12:00,
2013-03-02 05:22:00,28.0,24.0,30.16,NNW,333,7.0,11.0,84,0.00,,,0.11,,2013-03-02 05:22:00,
2013-03-02 05:32:00,28.0,24.0,30.16,NNW,342,5.0,9.0,85,0.00,,,0.11,,2013-03-02 05:32:00,
2013-03-02 05:42:00,28.0,24.0,30.16,NNW,342,5.0,9.0,85,0.00,,,0.11,,2013-03-02 05:42:00,
2013-03-02 05:52:00,28.0,24.0,30.16,NNW,338,6.0,11.0,84,0.00,,,0.11,,2013-03-02 05:52:00,
2013-03-02 06:01:00,28.0,24.0,30.16,NNW,346,3.0,10.0,84,0.00,,,0.11,,2013-03-02 06:01:00,
2013-03-02 06:11:00,28.0,24.0,30.16,NNW,346,3.0,10.0,84,0.00,,,0.11,,2013-03-02 06:11:00,
2013-03-02 06:21:00,28.0,24.0,30.16,NNW,331,5.0,12.0,84,0.00,,,0.11,,2013-03-02 06:21:00,
2013-03-02 06:31:00,28.0,24.0,30.16,NNW,333,6.0,12.0,85,0.00,,,0.11,,2013-03-02 06:31:00,
2013-03-02 06:41:00,28.0,24.0,30.16,NNW,333,6.0,12.0,85,0.00,,,0.11,,2013-03-02 06:41:00,
2013-03-02 06:51:00,28.0,24.0,30.16,NW,325,6.0,11.0,85,0.00,,,0.11,,2013-03-02 06:51:00,
2013-03-02 07:01:00,27.0,23.0,30.16,NNW,341,4.0,15.0,84,0.00,,,0.11,,2013-03-02 07:01:00,
2013-03-02 07:11:00,27.0,23.0,30.17,North,360,5.0,12.0,85,0.00,,,0.11,,2013-03-02 07:11:00,
2013-03-02 07:21:00,27.0,23.0,30.17,North,360,5.0,12.0,85,0.00,,,0.11,,2013-03-02 07:21:00,
2013-03-02 07:32:00,27.0,23.0,30.16,NW,321,6.0,10.0,85,0.00,,,0.11,,2013-03-02 07:32:00,
2013-03-02 07:42:00,27.0,23.0,30.16,NW,321,6.0,10.0,85,0.00,,,0.11,,2013-03-02 07:42:00,
2013-03-02 07:51:00,27.0,23.0,30.16,NNW,332,2.0,10.0,86,0.00,,,0.11,,2013-03-02 07:51:00,
2013-03-02 08:01:00,27.0,24.0,30.17,North,355,5.0,10.0,87,0.00,,,0.11,,2013-03-02 08:01:00,
2013-03-02 08:11:00,27.0,24.0,30.17,North,355,5.0,10.0,87,0.00,,,0.11,,2013-03-02 08:11:00,
2013-03-02 08:21:00,27.0,24.0,30.17,NNE,14,6.0,16.0,87,0.00,,,0.11,,2013-03-02 08:21:00,
2013-03-02 08:32:00,27.0,24.0,30.16,NNW,333,7.0,14.0,87,0.00,,,0.11,,2013-03-02 08:32:00,
2013-03-02 08:42:00,27.0,24.0,30.16,NNW,333,7.0,14.0,87,0.00,,,0.11,,2013-03-02 08:42:00,
2013-03-02 08:52:00,26.0,23.0,30.16,North,351,6.0,13.0,87,0.00,,,0.11,,2013-03-02 08:52:00,
2013-03-02 09:01:00,26.0,23.0,30.16,NW,326,4.0,11.0,87,0.00,,,0.11,,2013-03-02 09:01:00,
2013-03-02 09:11:00,26.0,23.0,30.16,NNW,341,6.0,11.0,87,0.00,,,0.11,,2013-03-02 09:11:00,
2013-03-02 09:21:00,26.0,23.0,30.16,NNW,341,6.0,11.0,87,0.00,,,0.11,,2013-03-02 09:21:00,
2013-03-02 09:32:00,26.0,23.0,30.16,North,355,6.0,14.0,87,0.00,,,0.11,,2013-03-02 09:32:00,
2013-03-02 09:42:00,26.0,23.0,30.16,North,355,6.0,14.0,87,0.00,,,0.11,,2013-03-02 09:42:00,
2013-03-02 09:51:00,26.0,23.0,30.16,NNW,346,6.0,13.0,87,0.00,,,0.11,,2013-03-02 09:51:00,
2013-03-02 10:01:00,26.0,23.0,30.16,North,349,6.0,12.0,87,0.00,,,0.11,,2013-03-02 10:01:00,
2013-03-02 10:15:00,26.0,23.0,30.16,North,349,6.0,12.0,87,0.00,,,0.11,,2013-03-02 10:15:00,
2013-03-02 10:22:00,26.0,23.0,30.16,NNW,333,5.0,10.0,87,0.00,,,0.11,,2013-03-02 10:22:00,
2013-03-02 10:32:00,26.0,23.0,30.16,NNW,335,4.0,9.0,87,0.00,,,0.11,,2013-03-02 10:32:00,
2013-03-02 10:42:00,26.0,23.0,30.16,NNW,335,4.0,9.0,87,0.00,,,0.11,,2013-03-02 10:42:00,
2013-03-02 10:51:00,26.0,22.0,30.17,NNW,340,4.0,12.0,86,0.00,,,0.11,,2013-03-02 10:51:00,
2013-03-02 11:01:00,26.0,22.0,30.17,NNW,342,6.0,10.0,85,0.00,,,0.11,,2013-03-02 11:01:00,
2013-03-02 11:11:00,26.0,22.0,30.17,NNW,342,6.0,10.0,85,0.00,,,0.11,,2013-03-02 11:11:00,
2013-03-02 11:21:00,26.0,22.0,30.17,NW,321,6.0,11.0,85,0.00,,,0.11,,2013-03-02 11:21:00,
2013-03-02 11:32:00,26.0,22.0,30.17,NW,323,6.0,11.0,84,0.00,,,0.11,,2013-03-02 11:32:00,
2013-03-02 11:42:00,26.0,22.0,30.17,NW,323,6.0,11.0,84,0.00,,,0.11,,2013-03-02 11:42:00,
2013-03-02 11:52:00,26.0,22.0,30.17,NNW,338,6.0,11.0,84,0.00,,,0.11,,2013-03-02 11:52:00,
2013-03-02 12:02:00,26.0,22.0,30.17,NNW,340,4.0,11.0,84,0.00,,,0.11,,2013-03-02 12:02:00,
2013-03-02 12:11:00,26.0,22.0,30.17,NNW,340,4.0,11.0,84,0.00,,,0.11,,2013-03-02 12:11:00,
2013-03-02 12:21:00,26.0,22.0,30.17,NW,312,5.0,11.0,83,0.00,,,0.11,,2013-03-02 12:21:00,
2013-03-02 12:33:00,26.0,22.0,30.18,NNW,327,6.0,14.0,83,0.00,,,0.11,,2013-03-02 12:33:00,
2013-03-02 12:43:00,26.0,22.0,30.18,NNW,327,6.0,14.0,83,0.00,,,0.11,,2013-03-02 12:43:00,
2013-03-02 12:53:00,26.0,22.0,30.18,NNW,336,7.0,12.0,83,0.00,,,0.11,,2013-03-02 12:53:00,
2013-03-02 13:01:00,26.0,22.0,30.19,NNW,327,3.0,8.0,83,0.00,,,0.11,,2013-03-02 13:01:00,
2013-03-02 13:11:00,26.0,22.0,30.19,NNW,327,3.0,8.0,83,0.00,,,0.11,,2013-03-02 13:11:00,
2013-03-02 13:22:00,26.0,21.0,30.19,NW,319,3.0,11.0,82,0.00,,,0.11,,2013-03-02 13:22:00,
2013-03-02 13:32:00,26.0,21.0,30.19,NW,309,4.0,10.0,82,0.00,,,0.11,,2013-03-02 13:32:00,
2013-03-02 13:42:00,26.0,21.0,30.19,NW,309,4.0,10.0,82,0.00,,,0.11,,2013-03-02 13:42:00,
2013-03-02 13:52:00,26.0,21.0,30.20,NNW,329,4.0,11.0,81,0.00,,,0.11,,2013-03-02 13:52:00,
2013-03-02 14:01:00,26.0,21.0,30.21,NW,320,6.0,11.0,81,0.00,,,0.11,,2013-03-02 14:01:00,
2013-03-02 14:11:00,26.0,21.0,30.21,NW,320,6.0,11.0,81,0.00,,,0.11,,2013-03-02 14:11:00,
2013-03-02 14:21:00,26.0,21.0,30.21,NW,315,7.0,11.0,81,0.00,,,0.11,,2013-03-02 14:21:00,
2013-03-02 14:32:00,27.0,22.0,30.22,North,355,5.0,12.0,82,0.00,,,0.11,,2013-03-02 14:32:00,
2013-03-02 14:42:00,27.0,22.0,30.22,North,355,5.0,12.0,82,0.00,,,0.11,,2013-03-02 14:42:00,
2013-03-02 14:52:00,27.0,22.0,30.22,NNW,328,5.0,13.0,82,0.00,,,0.11,,2013-03-02 14:52:00,
2013-03-02 15:02:00,27.0,22.0,30.22,NNW,345,8.0,14.0,82,0.00,,,0.11,,2013-03-02 15:02:00,
2013-03-02 15:11:00,27.0,22.0,30.22,NNW,345,8.0,14.0,82,0.00,,,0.11,,2013-03-02 15:11:00,
2013-03-02 15:21:00,27.0,22.0,30.22,NW,306,4.0,15.0,81,0.00,,,0.11,,2013-03-02 15:21:00,
2013-03-02 15:32:00,28.0,22.0,30.21,NW,319,6.0,16.0,77,0.00,,,0.11,,2013-03-02 15:32:00,
2013-03-02 15:42:00,28.0,22.0,30.21,NW,319,6.0,16.0,77,0.00,,,0.11,,2013-03-02 15:42:00,
2013-03-02 15:52:00,29.0,22.0,30.21,NNW,346,9.0,16.0,76,0.00,,,0.11,,2013-03-02 15:52:00,
2013-03-02 16:01:00,30.0,22.0,30.22,North,5,7.0,14.0,73,0.00,,,0.11,,2013-03-02 16:01:00,
2013-03-02 16:11:00,30.0,22.0,30.22,North,5,7.0,14.0,73,0.00,,,0.11,,2013-03-02 16:11:00,
2013-03-02 16:21:00,30.0,22.0,30.22,NW,315,6.0,14.0,72,0.00,,,0.11,,2013-03-02 16:21:00,
2013-03-02 16:32:00,31.0,22.0,30.22,NNW,334,4.0,13.0,70,0.00,,,0.11,,2013-03-02 16:32:00,
2013-03-02 16:42:00,31.0,22.0,30.22,NNW,334,4.0,13.0,70,0.00,,,0.11,,2013-03-02 16:42:00,
2013-03-02 16:51:00,31.0,23.0,30.22,NNW,333,6.0,12.0,71,0.00,,,0.11,,2013-03-02 16:51:00,
2013-03-02 17:01:00,32.0,23.0,30.22,NNW,343,6.0,12.0,68,0.00,,,0.11,,2013-03-02 17:01:00,
2013-03-02 17:11:00,32.0,23.0,30.22,NNW,343,6.0,12.0,68,0.00,,,0.11,,2013-03-02 17:11:00,
2013-03-02 17:21:00,32.0,22.0,30.22,WNW,302,6.0,12.0,67,0.01,,,0.12,,2013-03-02 17:21:00,
2013-03-02 17:32:00,33.0,23.0,30.22,WNW,294,5.0,13.0,66,0.01,,,0.09,,2013-03-02 17:32:00,
2013-03-02 17:42:00,33.0,23.0,30.22,WNW,294,5.0,13.0,66,0.01,,,0.09,,2013-03-02 17:42:00,
2013-03-02 17:52:00,33.0,23.0,30.22,NNW,339,3.0,11.0,66,0.01,,,0.09,,2013-03-02 17:52:00,
2013-03-02 18:02:00,33.0,23.0,30.21,WNW,284,6.0,11.0,66,0.01,,,0.09,,2013-03-02 18:02:00,
2013-03-02 18:11:00,33.0,23.0,30.21,WNW,284,6.0,11.0,66,0.01,,,0.09,,2013-03-02 18:11:00,
2013-03-02 18:22:00,33.0,23.0,30.21,NW,309,7.0,13.0,66,0.00,,,0.09,,2013-03-02 18:22:00,
2013-03-02 18:32:00,33.0,23.0,30.21,NNW,329,7.0,15.0,65,0.00,,,0.06,,2013-03-02 18:32:00,
2013-03-02 18:42:00,33.0,23.0,30.21,NNW,329,7.0,15.0,65,0.00,,,0.06,,2013-03-02 18:42:00,
2013-03-02 18:52:00,33.0,23.0,30.21,NW,309,4.0,12.0,65,0.00,,,0.06,,2013-03-02 18:52:00,
2013-03-02 19:01:00,33.0,23.0,30.20,WNW,292,6.0,11.0,65,0.01,,,0.07,,2013-03-02 19:01:00,
2013-03-02 19:11:00,33.0,23.0,30.20,WNW,292,6.0,11.0,65,0.01,,,0.07,,2013-03-02 19:11:00,
2013-03-02 19:21:00,33.0,22.0,30.19,NW,325,6.0,14.0,64,0.01,,,0.07,,2013-03-02 19:21:00,
2013-03-02 19:32:00,34.0,23.0,30.19,NW,315,7.0,13.0,63,0.01,,,0.06,,2013-03-02 19:32:00,
2013-03-02 19:42:00,34.0,23.0,30.19,NW,315,7.0,13.0,63,0.01,,,0.06,,2013-03-02 19:42:00,
2013-03-02 19:52:00,34.0,22.0,30.19,WNW,301,10.0,18.0,61,0.01,,,0.06,,2013-03-02 19:52:00,
2013-03-02 20:01:00,34.0,22.0,30.19,WNW,285,6.0,15.0,62,0.00,,,0.06,,2013-03-02 20:01:00,
2013-03-02 20:11:00,34.0,22.0,30.19,WNW,285,6.0,15.0,62,0.00,,,0.06,,2013-03-02 20:11:00,
2013-03-02 20:22:00,34.0,22.0,30.18,NW,319,4.0,13.0,61,0.01,,,0.07,,2013-03-02 20:22:00,
2013-03-02 20:32:00,34.0,21.0,30.18,NNW,330,7.0,17.0,59,0.01,,,0.05,,2013-03-02 20:32:00,
2013-03-02 20:42:00,34.0,21.0,30.18,NNW,330,7.0,17.0,59,0.01,,,0.05,,2013-03-02 20:42:00,
2013-03-02 20:52:00,34.0,21.0,30.18,NW,313,4.0,15.0,59,0.01,,,0.05,,2013-03-02 20:52:00,
2013-03-02 21:02:00,34.0,22.0,30.17,NW,325,8.0,14.0,60,0.01,,,0.05,,2013-03-02 21:02:00,
2013-03-02 21:11:00,34.0,22.0,30.17,NW,325,8.0,14.0,60,0.01,,,0.05,,2013-03-02 21:11:00,
2013-03-02 21:22:00,35.0,22.0,30.17,North,5,4.0,14.0,58,0.00,,,0.05,,2013-03-02 21:22:00,
2013-03-02 21:32:00,34.0,21.0,30.17,NNW,331,4.0,16.0,59,0.00,,,0.04,,2013-03-02 21:32:00,
2013-03-02 21:42:00,34.0,21.0,30.17,NNW,331,4.0,16.0,59,0.00,,,0.04,,2013-03-02 21:42:00,
2013-03-02 21:52:00,34.0,21.0,30.17,NNW,336,7.0,13.0,59,0.00,,,0.04,,2013-03-02 21:52:00,
2013-03-02 22:02:00,33.0,21.0,30.17,NNW,338,3.0,11.0,60,0.00,,,0.04,,2013-03-02 22:02:00,
2013-03-02 22:11:00,33.0,21.0,30.17,NNW,338,3.0,11.0,60,0.00,,,0.04,,2013-03-02 22:11:00,
2013-03-02 22:21:00,32.0,20.0,30.18,WNW,287,4.0,10.0,60,0.00,,,0.04,,2013-03-02 22:21:00,
2013-03-02 22:32:00,31.0,19.0,30.18,NNW,328,2.0,11.0,61,0.00,,,0.03,,2013-03-02 22:32:00,
2013-03-02 22:42:00,31.0,19.0,30.18,NNW,328,2.0,11.0,61,0.00,,,0.03,,2013-03-02 22:42:00,
2013-03-02 22:51:00,31.0,20.0,30.18,NNW,331,4.0,11.0,63,0.00,,,0.03,,2013-03-02 22:51:00,
2013-03-02 23:01:00,32.0,21.0,30.18,WNW,297,6.0,11.0,63,0.00,,,0.03,,2013-03-02 23:01:00,
2013-03-02 23:11:00,32.0,20.0,30.18,WNW,302,3.0,9.0,61,0.00,,,0.03,,2013-03-02 23:11:00,
2013-03-02 23:21:00,32.0,20.0,30.18,WNW,302,3.0,9.0,61,0.00,,,0.03,,2013-03-02 23:21:00,
2013-03-02 23:32:00,31.0,20.0,30.19,NW,315,1.0,10.0,62,0.00,,,0.03,,2013-03-02 23:32:00,
2013-03-02 23:42:00,31.0,20.0,30.19,NW,315,1.0,10.0,62,0.00,,,0.03,,2013-03-02 23:42:00,
2013-03-02 23:52:00,31.0,20.0,30.19,NW,325,3.0,10.0,63,0.00,,,0.03,,2013-03-02 23:52:00,